TimeMDT,TemperatureF,Dew PointF,Humidity,Sea Level PressureIn,VisibilityMPH,Wind Direction,Wind SpeedMPH,Gust SpeedMPH,PrecipitationIn,Events,Conditions,WindDirDegrees,DateUTC
12:53 AM,39.9,19.9,45,30.01,10.0,SSW,10.4,-,N/A,,Clear,200,2012-10-08 06:53:00
1:53 AM,37.0,21.0,52,30.03,10.0,ESE,5.8,-,N/A,,Clear,120,2012-10-08 07:53:00
2:53 AM,34.0,21.0,59,30.03,10.0,SE,6.9,-,N/A,,Clear,140,2012-10-08 08:53:00
3:53 AM,35.1,19.0,52,30.01,10.0,South,6.9,-,N/A,,Clear,170,2012-10-08 09:53:00
4:53 AM,37.9,16.0,41,30.00,10.0,South,9.2,-,N/A,,Clear,180,2012-10-08 10:53:00
5:53 AM,37.0,16.0,42,30.00,10.0,South,8.1,-,N/A,,Clear,170,2012-10-08 11:53:00
6:53 AM,39.0,14.0,36,30.02,10.0,South,8.1,-,N/A,,Clear,170,2012-10-08 12:53:00
7:53 AM,42.1,14.0,32,30.00,10.0,South,8.1,-,N/A,,Partly Cloudy,170,2012-10-08 13:53:00
8:53 AM,48.9,19.9,32,29.99,10.0,South,3.5,-,N/A,,Partly Cloudy,170,2012-10-08 14:53:00
9:53 AM,57.9,12.9,17,29.95,10.0,SW,4.6,-,N/A,,Partly Cloudy,220,2012-10-08 15:53:00
10:53 AM,62.1,10.9,13,29.92,10.0,Variable,3.5,-,N/A,,Partly Cloudy,0,2012-10-08 16:53:00
11:53 AM,64.9,12.9,13,29.88,10.0,East,8.1,-,N/A,,Partly Cloudy,100,2012-10-08 17:53:00
12:53 PM,66.0,9.0,11,29.85,10.0,Calm,Calm,-,N/A,,Partly Cloudy,0,2012-10-08 18:53:00
1:53 PM,68.0,12.9,12,29.82,10.0,ENE,6.9,-,N/A,,Partly Cloudy,60,2012-10-08 19:53:00
2:53 PM,68.0,10.9,11,29.82,10.0,NNE,6.9,-,N/A,,Partly Cloudy,20,2012-10-08 20:53:00
3:53 PM,68.0,10.9,11,29.80,10.0,Calm,Calm,-,N/A,,Partly Cloudy,0,2012-10-08 21:53:00
4:53 PM,69.1,10.0,10,29.78,10.0,Calm,Calm,-,N/A,,Partly Cloudy,0,2012-10-08 22:53:00
5:53 PM,66.9,14.0,13,29.79,10.0,ESE,3.5,-,N/A,,Partly Cloudy,120,2012-10-08 23:53:00
6:53 PM,59.0,19.9,22,29.83,10.0,South,6.9,-,N/A,,Partly Cloudy,190,2012-10-09 00:53:00
7:53 PM,54.0,19.9,26,29.84,10.0,SSW,4.6,-,N/A,,Partly Cloudy,210,2012-10-09 01:53:00
8:53 PM,57.0,15.1,19,29.82,10.0,West,10.4,-,N/A,,Partly Cloudy,270,2012-10-09 02:53:00
9:53 PM,53.1,15.1,22,29.82,10.0,NNW,4.6,-,N/A,,Partly Cloudy,330,2012-10-09 03:53:00
10:53 PM,50.0,10.9,21,29.81,10.0,SW,11.5,-,N/A,,Partly Cloudy,230,2012-10-09 04:53:00
11:53 PM,53.1,6.1,15,29.78,10.0,SSW,12.7,-,N/A,,Partly Cloudy,210,2012-10-09 05:53:00